| time (UTC) | temp F | wind direction | speed MPH | gust MPH | rain 1hr in | rain 24hr in | rain mn in | humidity % | barometer mb |
| 20260831001854 | 47 | 322 | 1.0 | 3.0 | 0.00 | 0.07 | 0.01 | 91 | 1008.0 |
| 20260831001354 | 47 | 239 | 0.0 | 0.0 | 0.00 | 0.07 | 0.01 | 90 | 1007.6 |
| 20260831001255 | 47 | 239 | 0.0 | 0.0 | 0.00 | 0.07 | 0.01 | 90 | 1008.0 |
| 20260831000854 | 47 | 239 | 0.0 | 0.0 | 0.00 | 0.07 | 0.01 | 90 | 1008.1 |
| 20260831000355 | 47 | 239 | 0.0 | 0.0 | 0.00 | 0.07 | 0.01 | 90 | 1008.0 |
| 20260831000155 | 47 | 239 | 0.0 | 0.0 | 0.00 | 0.07 | 0.01 | 90 | 1008.1 |
| 20260830235854 | 47 | 239 | 0.0 | 0.0 | 0.00 | 0.07 | 0.01 | 90 | 1008.1 |
| 20260830235354 | 47 | 239 | 0.0 | 0.0 | 0.00 | 0.07 | 0.01 | 90 | 1008.0 |
| 20260830235055 | 47 | 239 | 0.0 | 0.0 | 0.00 | 0.07 | 0.01 | 90 | 1008.0 |
| 20260830234854 | 47 | 239 | 0.0 | 0.0 | 0.00 | 0.07 | 0.01 | 90 | 1008.0 |
| 20260830234354 | 48 | 239 | 0.0 | 0.0 | 0.00 | 0.07 | 0.01 | 89 | 1008.0 |
| 20260830233955 | 48 | 239 | 0.0 | 0.0 | 0.00 | 0.07 | 0.01 | 89 | 1008.0 |
| 20260830233854 | 48 | 239 | 0.0 | 0.0 | 0.00 | 0.07 | 0.01 | 89 | 1007.9 |
| 20260830233354 | 48 | 239 | 0.0 | 1.0 | 0.00 | 0.07 | 0.01 | 90 | 1008.0 |
| 20260830232854 | 48 | 239 | 0.0 | 3.0 | 0.00 | 0.07 | 0.01 | 90 | 1007.9 |
| 20260830232354 | 48 | 295 | 0.0 | 0.0 | 0.00 | 0.07 | 0.01 | 90 | 1008.0 |
| 20260830231854 | 48 | 295 | 0.0 | 0.0 | 0.00 | 0.07 | 0.01 | 90 | 1008.0 |
| 20260830231755 | 48 | 295 | 0.0 | 0.0 | 0.00 | 0.07 | 0.01 | 90 | 1008.0 |
| 20260830231354 | 49 | 295 | 0.0 | 0.0 | 0.00 | 0.07 | 0.01 | 89 | 1007.9 |
| 20260830230854 | 49 | 295 | 0.0 | 0.0 | 0.01 | 0.07 | 0.01 | 89 | 1007.9 |
| 20260830230655 | 49 | 295 | 0.0 | 0.0 | 0.01 | 0.07 | 0.01 | 89 | 1007.9 |
| 20260830230354 | 49 | 295 | 0.0 | 0.0 | 0.01 | 0.07 | 0.01 | 90 | 1007.9 |
| 20260830225854 | 49 | 295 | 0.0 | 0.0 | 0.01 | 0.07 | 0.01 | 91 | 1007.9 |
| 20260830225555 | 49 | 295 | 0.0 | 0.0 | 0.01 | 0.07 | 0.01 | 91 | 1007.9 |
| 20260830225354 | 49 | 295 | 0.0 | 0.0 | 0.01 | 0.07 | 0.01 | 91 | 1007.9 |
| 20260830224854 | 49 | 295 | 0.0 | 3.0 | 0.01 | 0.07 | 0.01 | 91 | 1007.9 |
| 20260830224455 | 49 | 275 | 0.0 | 3.0 | 0.01 | 0.07 | 0.01 | 91 | 1007.9 |
| 20260830224354 | 49 | 275 | 0.0 | 3.0 | 0.01 | 0.07 | 0.01 | 91 | 1007.9 |
| 20260830223854 | 50 | 310 | 0.0 | 5.0 | 0.01 | 0.07 | 0.01 | 91 | 1007.9 |
| 20260830223354 | 50 | 279 | 0.0 | 4.0 | 0.01 | 0.07 | 0.01 | 92 | 1007.8 |
| 20260830222854 | 50 | 270 | 0.0 | 2.0 | 0.01 | 0.07 | 0.01 | 92 | 1007.8 |
| 20260830222354 | 50 | 137 | 0.0 | 0.0 | 0.01 | 0.07 | 0.01 | 93 | 1007.8 |
| 20260830222255 | 50 | 137 | 0.0 | 0.0 | 0.01 | 0.07 | 0.01 | 93 | 1007.8 |
| 20260830221854 | 50 | 137 | 0.0 | 0.0 | 0.01 | 0.07 | 0.01 | 93 | 1007.6 |
| 20260830221354 | 50 | 137 | 0.0 | 0.0 | 0.01 | 0.07 | 0.01 | 93 | 1007.6 |
| 20260830221155 | 51 | 137 | 0.0 | 0.0 | 0.01 | 0.07 | 0.01 | 93 | 1007.6 |
| 20260830220854 | 50 | 137 | 0.0 | 0.0 | 0.00 | 0.06 | 0.00 | 93 | 1007.6 |
| 20260830220354 | 51 | 137 | 0.0 | 0.0 | 0.00 | 0.06 | 0.00 | 93 | 1007.6 |
| 20260830220055 | 51 | 137 | 0.0 | 0.0 | 0.00 | 0.06 | 0.00 | 92 | 1007.6 |
| 20260830215854 | 51 | 137 | 0.0 | 0.0 | 0.00 | 0.06 | 0.00 | 92 | 1007.6 |
| 20260830215354 | 51 | 137 | 0.0 | 0.0 | 0.00 | 0.06 | 0.00 | 92 | 1007.5 |
| 20260830214955 | 50 | 137 | 0.0 | 0.0 | 0.00 | 0.06 | 0.00 | 92 | 1007.5 |
| 20260830214854 | 50 | 137 | 0.0 | 0.0 | 0.00 | 0.06 | 0.00 | 92 | 1007.5 |
| 20260830214354 | 51 | 137 | 0.0 | 0.0 | 0.00 | 0.06 | 0.06 | 92 | 1007.5 |
| 20260830213854 | 51 | 137 | 0.0 | 0.0 | 0.00 | 0.06 | 0.06 | 91 | 1007.5 |
| 20260830213354 | 51 | 137 | 0.0 | 0.0 | 0.00 | 0.06 | 0.06 | 91 | 1007.5 |
| 20260830212854 | 51 | 137 | 0.0 | 0.0 | 0.00 | 0.06 | 0.06 | 91 | 1007.2 |
| 20260830212755 | 51 | 137 | 0.0 | 0.0 | 0.00 | 0.06 | 0.06 | 91 | 1007.5 |
| 20260830212354 | 51 | 137 | 0.0 | 0.0 | 0.00 | 0.06 | 0.06 | 91 | 1007.5 |
| 20260830211854 | 51 | 137 | 0.0 | 0.0 | 0.00 | 0.06 | 0.06 | 91 | 1007.5 |
| 20260830211655 | 51 | 137 | 0.0 | 0.0 | 0.00 | 0.06 | 0.06 | 91 | 1007.4 |
| 20260830211354 | 51 | 137 | 0.0 | 0.0 | 0.00 | 0.06 | 0.06 | 91 | 1007.5 |
| 20260830210854 | 51 | 137 | 0.0 | 0.0 | 0.00 | 0.06 | 0.06 | 91 | 1007.4 |
| 20260830210555 | 52 | 137 | 0.0 | 0.0 | 0.00 | 0.06 | 0.06 | 91 | 1007.4 |
| 20260830210354 | 51 | 137 | 0.0 | 0.0 | 0.00 | 0.06 | 0.06 | 91 | 1007.4 |
| 20260830205854 | 52 | 137 | 0.0 | 0.0 | 0.00 | 0.06 | 0.06 | 91 | 1007.3 |
| 20260830205455 | 52 | 137 | 0.0 | 0.0 | 0.00 | 0.06 | 0.06 | 91 | 1007.3 |
| 20260830205354 | 52 | 137 | 0.0 | 0.0 | 0.00 | 0.06 | 0.06 | 91 | 1007.3 |
| 20260830204854 | 52 | 137 | 0.0 | 0.0 | 0.00 | 0.06 | 0.06 | 91 | 1007.3 |
| 20260830204354 | 52 | 137 | 0.0 | 0.0 | 0.00 | 0.06 | 0.06 | 91 | 1007.3 |
| 20260830203854 | 52 | 137 | 0.0 | 0.0 | 0.00 | 0.06 | 0.06 | 91 | 1007.3 |
| 20260830203354 | 52 | 137 | 0.0 | 0.0 | 0.00 | 0.06 | 0.06 | 91 | 1007.3 |
| 20260830203255 | 52 | 137 | 0.0 | 0.0 | 0.00 | 0.06 | 0.06 | 91 | 1007.3 |
| 20260830202854 | 52 | 137 | 0.0 | 0.0 | 0.00 | 0.06 | 0.06 | 90 | 1007.2 |
| 20260830202354 | 52 | 137 | 0.0 | 0.0 | 0.00 | 0.06 | 0.06 | 90 | 1007.2 |
| 20260830202155 | 52 | 137 | 0.0 | 0.0 | 0.00 | 0.06 | 0.06 | 90 | 1007.3 |
| 20260830201854 | 52 | 137 | 0.0 | 0.0 | 0.00 | 0.06 | 0.06 | 90 | 1007.2 |
| 20260830201354 | 52 | 137 | 0.0 | 0.0 | 0.00 | 0.06 | 0.06 | 90 | 1007.3 |
| 20260830201055 | 52 | 137 | 0.0 | 0.0 | 0.00 | 0.06 | 0.06 | 90 | 1007.3 |
| 20260830200854 | 52 | 137 | 0.0 | 0.0 | 0.00 | 0.06 | 0.06 | 90 | 1007.3 |
| 20260830200354 | 52 | 137 | 0.0 | 0.0 | 0.00 | 0.06 | 0.06 | 90 | 1007.2 |
| 20260830195955 | 52 | 137 | 0.0 | 0.0 | 0.00 | 0.06 | 0.06 | 90 | 1007.2 |
| 20260830195854 | 52 | 137 | 0.0 | 0.0 | 0.00 | 0.06 | 0.06 | 89 | 1007.3 |
| 20260830195354 | 52 | 137 | 0.0 | 0.0 | 0.00 | 0.06 | 0.06 | 89 | 1007.2 |
| 20260830194854 | 52 | 137 | 0.0 | 0.0 | 0.00 | 0.06 | 0.06 | 89 | 1007.2 |
| 20260830194354 | 52 | 137 | 0.0 | 0.0 | 0.00 | 0.06 | 0.06 | 89 | 1007.1 |
| 20260830193854 | 53 | 137 | 0.0 | 0.0 | 0.00 | 0.06 | 0.06 | 89 | 1006.7 |
| 20260830193755 | 52 | 137 | 0.0 | 0.0 | 0.00 | 0.06 | 0.06 | 89 | 1007.0 |
| 20260830193354 | 53 | 137 | 0.0 | 0.0 | 0.00 | 0.06 | 0.06 | 89 | 1007.0 |
| 20260830192854 | 53 | 137 | 0.0 | 0.0 | 0.00 | 0.06 | 0.06 | 89 | 1006.9 |
| 20260830192655 | 53 | 137 | 0.0 | 0.0 | 0.00 | 0.06 | 0.06 | 89 | 1007.0 |
| 20260830192354 | 53 | 137 | 0.0 | 0.0 | 0.00 | 0.06 | 0.06 | 89 | 1007.0 |
| 20260830191854 | 53 | 137 | 0.0 | 0.0 | 0.00 | 0.06 | 0.06 | 88 | 1007.0 |
| 20260830191555 | 53 | 137 | 0.0 | 0.0 | 0.00 | 0.06 | 0.06 | 88 | 1007.1 |
| 20260830191354 | 53 | 137 | 0.0 | 0.0 | 0.00 | 0.06 | 0.06 | 88 | 1007.1 |
| 20260830190854 | 53 | 137 | 0.0 | 0.0 | 0.00 | 0.06 | 0.06 | 88 | 1007.1 |
| 20260830190455 | 53 | 137 | 0.0 | 0.0 | 0.00 | 0.06 | 0.06 | 87 | 1007.1 |
| 20260830190354 | 53 | 137 | 0.0 | 0.0 | 0.00 | 0.06 | 0.06 | 87 | 1007.1 |
| 20260830185854 | 53 | 137 | 0.0 | 0.0 | 0.00 | 0.06 | 0.06 | 87 | 1007.0 |
| 20260830185354 | 53 | 137 | 0.0 | 0.0 | 0.00 | 0.06 | 0.06 | 87 | 1007.0 |
| 20260830184854 | 54 | 137 | 0.0 | 0.0 | 0.00 | 0.06 | 0.06 | 87 | 1006.9 |
| 20260830184354 | 54 | 137 | 0.0 | 0.0 | 0.00 | 0.06 | 0.06 | 87 | 1006.6 |
| 20260830184255 | 54 | 137 | 0.0 | 0.0 | 0.00 | 0.06 | 0.06 | 87 | 1006.9 |
| 20260830183854 | 54 | 137 | 0.0 | 0.0 | 0.00 | 0.06 | 0.06 | 87 | 1006.7 |
| 20260830183354 | 54 | 137 | 0.0 | 0.0 | 0.00 | 0.06 | 0.06 | 87 | 1006.7 |
| 20260830183155 | 54 | 137 | 0.0 | 0.0 | 0.00 | 0.06 | 0.06 | 87 | 1006.6 |
| 20260830182854 | 54 | 137 | 0.0 | 0.0 | 0.00 | 0.06 | 0.06 | 86 | 1006.6 |
| 20260830182354 | 54 | 137 | 0.0 | 0.0 | 0.00 | 0.06 | 0.06 | 87 | 1006.6 |
| 20260830182055 | 54 | 137 | 0.0 | 0.0 | 0.00 | 0.06 | 0.06 | 86 | 1006.6 |
| 20260830181854 | 54 | 137 | 0.0 | 0.0 | 0.00 | 0.06 | 0.06 | 86 | 1006.6 |
| 20260830181354 | 54 | 137 | 0.0 | 0.0 | 0.00 | 0.06 | 0.06 | 86 | 1006.6 |
| 20260830180955 | 54 | 137 | 0.0 | 0.0 | 0.00 | 0.06 | 0.06 | 85 | 1006.6 |
| 20260830180854 | 54 | 137 | 0.0 | 0.0 | 0.00 | 0.06 | 0.06 | 85 | 1006.6 |
| 20260830180354 | 55 | 137 | 0.0 | 0.0 | 0.00 | 0.07 | 0.06 | 85 | 1006.6 |
| 20260830175854 | 55 | 137 | 0.0 | 0.0 | 0.00 | 0.07 | 0.06 | 85 | 1006.6 |
| 20260830175354 | 55 | 137 | 0.0 | 0.0 | 0.00 | 0.07 | 0.06 | 85 | 1006.5 |
| 20260830174854 | 55 | 137 | 0.0 | 0.0 | 0.00 | 0.07 | 0.06 | 85 | 1006.3 |
| 20260830174757 | 55 | 137 | 0.0 | 0.0 | 0.00 | 0.07 | 0.06 | 85 | 1006.5 |
| 20260830174354 | 55 | 137 | 0.0 | 0.0 | 0.00 | 0.07 | 0.06 | 85 | 1006.5 |
| 20260830173854 | 55 | 137 | 0.0 | 0.0 | 0.00 | 0.07 | 0.06 | 85 | 1006.5 |
| 20260830173655 | 55 | 137 | 0.0 | 0.0 | 0.00 | 0.07 | 0.06 | 85 | 1006.5 |
| 20260830173354 | 55 | 137 | 0.0 | 2.0 | 0.00 | 0.07 | 0.06 | 85 | 1006.4 |
| 20260830172854 | 56 | 285 | 2.0 | 2.0 | 0.00 | 0.07 | 0.06 | 85 | 1006.4 |
| 20260830172556 | 56 | 75 | 0.0 | 0.0 | 0.00 | 0.07 | 0.06 | 84 | 1006.4 |
| 20260830172354 | 56 | 75 | 0.0 | 0.0 | 0.00 | 0.07 | 0.06 | 84 | 1006.4 |
| 20260830171854 | 56 | 75 | 0.0 | 0.0 | 0.00 | 0.07 | 0.06 | 84 | 1006.3 |
| 20260830171455 | 56 | 75 | 0.0 | 0.0 | 0.00 | 0.07 | 0.06 | 84 | 1006.4 |
| 20260830171355 | 56 | 75 | 0.0 | 0.0 | 0.00 | 0.07 | 0.06 | 84 | 1006.3 |
| 20260830170854 | 56 | 75 | 0.0 | 1.0 | 0.00 | 0.07 | 0.06 | 83 | 1006.3 |
| 20260830170355 | 56 | 216 | 0.0 | 0.0 | 0.00 | 0.09 | 0.06 | 83 | 1006.3 |
| 20260830165854 | 56 | 216 | 0.0 | 2.0 | 0.00 | 0.09 | 0.06 | 82 | 1006.3 |
| 20260830165355 | 56 | 137 | 0.0 | 0.0 | 0.00 | 0.09 | 0.06 | 82 | 1006.3 |
| 20260830165256 | 56 | 137 | 0.0 | 0.0 | 0.00 | 0.09 | 0.06 | 82 | 1006.4 |
| 20260830164855 | 56 | 137 | 0.0 | 0.0 | 0.00 | 0.09 | 0.06 | 82 | 1006.3 |
| 20260830164355 | 56 | 137 | 0.0 | 0.0 | 0.00 | 0.09 | 0.06 | 82 | 1006.2 |
| 20260830164156 | 56 | 137 | 0.0 | 0.0 | 0.00 | 0.09 | 0.06 | 82 | 1006.3 |
| 20260830163855 | 56 | 137 | 0.0 | 0.0 | 0.00 | 0.09 | 0.06 | 82 | 1006.2 |
| 20260830163356 | 56 | 137 | 0.0 | 0.0 | 0.00 | 0.09 | 0.06 | 82 | 1006.2 |
| 20260830163056 | 56 | 137 | 0.0 | 0.0 | 0.00 | 0.09 | 0.06 | 81 | 1006.2 |
| 20260830162855 | 56 | 137 | 0.0 | 0.0 | 0.00 | 0.09 | 0.06 | 81 | 1006.2 |
| 20260830162355 | 56 | 137 | 0.0 | 0.0 | 0.00 | 0.09 | 0.06 | 81 | 1006.2 |
| 20260830161956 | 56 | 137 | 0.0 | 0.0 | 0.00 | 0.09 | 0.06 | 82 | 1006.2 |
| 20260830161855 | 56 | 137 | 0.0 | 0.0 | 0.00 | 0.09 | 0.06 | 81 | 1006.2 |
| 20260830161355 | 56 | 137 | 0.0 | 0.0 | 0.01 | 0.09 | 0.06 | 82 | 1006.2 |
| 20260830160855 | 57 | 137 | 0.0 | 0.0 | 0.02 | 0.09 | 0.06 | 81 | 1006.2 |
| 20260830160355 | 57 | 137 | 0.0 | 0.0 | 0.03 | 0.10 | 0.06 | 81 | 1006.2 |
| 20260830155855 | 56 | 137 | 0.0 | 0.0 | 0.04 | 0.10 | 0.06 | 81 | 1006.0 |
| 20260830155756 | 56 | 137 | 0.0 | 0.0 | 0.04 | 0.10 | 0.06 | 81 | 1006.2 |
| 20260830155355 | 56 | 137 | 0.0 | 0.0 | 0.05 | 0.10 | 0.06 | 81 | 1006.2 |
| 20260830154855 | 56 | 137 | 0.0 | 0.0 | 0.06 | 0.10 | 0.06 | 80 | 1006.2 |
| 20260830154656 | 57 | 137 | 0.0 | 0.0 | 0.06 | 0.10 | 0.06 | 80 | 1006.2 |
| 20260830154355 | 57 | 137 | 0.0 | 0.0 | 0.06 | 0.10 | 0.06 | 79 | 1006.2 |
| 20260830153855 | 57 | 137 | 0.0 | 0.0 | 0.06 | 0.10 | 0.06 | 79 | 1006.2 |
| 20260830153556 | 57 | 137 | 0.0 | 0.0 | 0.06 | 0.10 | 0.06 | 79 | 1006.2 |
| 20260830153355 | 57 | 137 | 0.0 | 0.0 | 0.06 | 0.10 | 0.06 | 79 | 1006.1 |
| 20260830152855 | 57 | 95 | 0.0 | 1.0 | 0.06 | 0.10 | 0.06 | 79 | 1006.2 |
| 20260830152456 | 57 | 232 | 0.0 | 0.0 | 0.06 | 0.10 | 0.06 | 78 | 1006.2 |
| 20260830152355 | 56 | 232 | 0.0 | 0.0 | 0.06 | 0.10 | 0.06 | 79 | 1006.2 |
| 20260830151855 | 56 | 232 | 0.0 | 0.0 | 0.06 | 0.10 | 0.06 | 79 | 1006.2 |
| 20260830151355 | 56 | 232 | 0.0 | 2.0 | 0.05 | 0.09 | 0.05 | 78 | 1006.2 |
| 20260830150855 | 56 | 208 | 0.0 | 2.0 | 0.04 | 0.08 | 0.04 | 78 | 1006.3 |
| 20260830150355 | 56 | 279 | 0.0 | 4.0 | 0.03 | 0.14 | 0.03 | 77 | 1006.0 |
| 20260830150256 | 56 | 244 | 0.0 | 4.0 | 0.03 | 0.14 | 0.03 | 77 | 1006.2 |
| 20260830145855 | 56 | 309 | 1.0 | 5.0 | 0.02 | 0.13 | 0.02 | 76 | 1006.2 |
| 20260830145355 | 57 | 241 | 3.0 | 4.0 | 0.01 | 0.12 | 0.01 | 77 | 1006.3 |
| 20260830145156 | 57 | 261 | 2.0 | 7.0 | 0.01 | 0.12 | 0.01 | 75 | 1006.3 |
| 20260830144855 | 58 | 253 | 2.0 | 7.0 | 0.00 | 0.11 | 0.00 | 72 | 1006.3 |
| 20260830144355 | 58 | 284 | 2.0 | 7.0 | 0.00 | 0.11 | 0.00 | 71 | 1006.2 |
| 20260830144056 | 59 | 295 | 1.0 | 7.0 | 0.00 | 0.11 | 0.00 | 71 | 1006.2 |
| 20260830143855 | 59 | 264 | 3.0 | 7.0 | 0.00 | 0.11 | 0.00 | 70 | 1006.2 |
| 20260830143355 | 60 | 111 | 1.0 | 7.0 | 0.00 | 0.11 | 0.00 | 71 | 1006.2 |
| 20260830142956 | 60 | 302 | 0.0 | 2.0 | 0.00 | 0.11 | 0.00 | 70 | 1006.2 |
| 20260830142855 | 60 | 343 | 1.0 | 1.0 | 0.00 | 0.11 | 0.00 | 70 | 1006.2 |
| 20260830142355 | 60 | 250 | 0.0 | 3.0 | 0.00 | 0.11 | 0.00 | 68 | 1006.2 |
| 20260830141855 | 60 | 229 | 0.0 | 2.0 | 0.00 | 0.11 | 0.00 | 68 | 1006.2 |
| 20260830141355 | 60 | 247 | 0.0 | 3.0 | 0.00 | 0.11 | 0.00 | 69 | 1006.1 |
| 20260830140855 | 60 | 285 | 0.0 | 2.0 | 0.00 | 0.11 | 0.00 | 68 | 1005.9 |
| 20260830140756 | 61 | 275 | 1.0 | 2.0 | 0.00 | 0.11 | 0.00 | 68 | 1006.1 |
| 20260830140355 | 61 | 313 | 0.0 | 2.0 | 0.00 | 0.22 | 0.00 | 67 | 1006.1 |
| 20260830135855 | 61 | 229 | 0.0 | 1.0 | 0.00 | 0.22 | 0.00 | 66 | 1006.1 |
| 20260830135656 | 61 | 229 | 0.0 | 1.0 | 0.00 | 0.22 | 0.00 | 66 | 1006.1 |
| 20260830135355 | 61 | 267 | 0.0 | 2.0 | 0.00 | 0.22 | 0.00 | 65 | 1006.0 |
| 20260830134855 | 61 | 201 | 0.0 | 2.0 | 0.00 | 0.22 | 0.00 | 65 | 1006.0 |
| 20260830134556 | 61 | 315 | 0.0 | 2.0 | 0.00 | 0.22 | 0.00 | 66 | 1006.0 |
| 20260830134355 | 61 | 322 | 1.0 | 2.0 | 0.00 | 0.22 | 0.00 | 67 | 1005.9 |
| 20260830133855 | 61 | 270 | 0.0 | 3.0 | 0.00 | 0.22 | 0.00 | 67 | 1005.9 |
| 20260830133456 | 61 | 286 | 0.0 | 3.0 | 0.00 | 0.22 | 0.00 | 67 | 1005.9 |
| 20260830133355 | 61 | 260 | 3.0 | 3.0 | 0.00 | 0.22 | 0.00 | 68 | 1005.9 |
| 20260830132855 | 61 | 285 | 0.0 | 3.0 | 0.00 | 0.22 | 0.00 | 67 | 1005.9 |
| 20260830132355 | 61 | 247 | 3.0 | 5.0 | 0.00 | 0.22 | 0.00 | 63 | 1005.9 |
| 20260830131855 | 61 | 201 | 2.0 | 6.0 | 0.00 | 0.22 | 0.00 | 62 | 1005.9 |
| 20260830131355 | 62 | 303 | 2.0 | 5.0 | 0.00 | 0.22 | 0.00 | 65 | 1005.7 |
| 20260830131256 | 62 | 116 | 0.0 | 4.0 | 0.00 | 0.22 | 0.00 | 65 | 1005.7 |
| 20260830130855 | 61 | 202 | 0.0 | 4.0 | 0.00 | 0.22 | 0.00 | 67 | 1005.7 |
| 20260830130355 | 61 | 272 | 3.0 | 5.0 | 0.00 | 0.27 | 0.00 | 69 | 1005.6 |
| 20260830130156 | 61 | 196 | 1.0 | 6.0 | 0.00 | 0.27 | 0.00 | 68 | 1005.7 |
| 20260830125855 | 60 | 298 | 4.0 | 6.0 | 0.00 | 0.27 | 0.00 | 68 | 1005.7 |
| 20260830125355 | 60 | 307 | 2.0 | 4.0 | 0.00 | 0.27 | 0.00 | 73 | 1005.6 |
| 20260830125056 | 59 | 302 | 0.0 | 4.0 | 0.00 | 0.27 | 0.00 | 72 | 1005.6 |
| 20260830124855 | 59 | 267 | 2.0 | 8.0 | 0.00 | 0.27 | 0.00 | 73 | 1005.6 |
| 20260830124355 | 59 | 293 | 4.0 | 6.0 | 0.00 | 0.27 | 0.00 | 75 | 1005.6 |
| 20260830123956 | 60 | 343 | 3.0 | 3.0 | 0.00 | 0.27 | 0.00 | 74 | 1005.6 |
| 20260830123855 | 61 | 216 | 0.0 | 4.0 | 0.00 | 0.27 | 0.00 | 73 | 1005.6 |
| 20260830123355 | 61 | 292 | 3.0 | 4.0 | 0.00 | 0.27 | 0.00 | 72 | 1005.6 |
| 20260830122855 | 62 | 326 | 1.0 | 5.0 | 0.00 | 0.27 | 0.00 | 71 | 1005.6 |
| 20260830122355 | 62 | 289 | 2.0 | 3.0 | 0.00 | 0.27 | 0.00 | 72 | 1005.6 |
| 20260830121855 | 61 | 315 | 0.0 | 4.0 | 0.00 | 0.27 | 0.00 | 74 | 1005.6 |
| 20260830121756 | 61 | 305 | 0.0 | 4.0 | 0.00 | 0.27 | 0.00 | 73 | 1005.6 |
| 20260830121355 | 61 | 313 | 1.0 | 4.0 | 0.00 | 0.27 | 0.00 | 71 | 1005.6 |
| 20260830120855 | 60 | 240 | 0.0 | 1.0 | 0.00 | 0.27 | 0.00 | 70 | 1005.7 |
| 20260830120656 | 60 | 284 | 0.0 | 1.0 | 0.00 | 0.27 | 0.00 | 69 | 1005.7 |
| 20260830120355 | 61 | 223 | 0.0 | 0.0 | 0.00 | 0.33 | 0.00 | 68 | 1005.6 |
| 20260830115855 | 61 | 223 | 0.0 | 1.0 | 0.00 | 0.33 | 0.00 | 69 | 1005.6 |
| 20260830115556 | 61 | 227 | 0.0 | 1.0 | 0.00 | 0.33 | 0.00 | 70 | 1005.6 |
| 20260830115355 | 60 | 230 | 1.0 | 1.0 | 0.00 | 0.33 | 0.00 | 71 | 1005.6 |
| 20260830114855 | 60 | 156 | 0.0 | 1.0 | 0.00 | 0.33 | 0.00 | 72 | 1005.6 |
| 20260830114456 | 60 | 156 | 0.0 | 1.0 | 0.00 | 0.33 | 0.00 | 73 | 1005.7 |
| 20260830114355 | 60 | 293 | 0.0 | 0.0 | 0.00 | 0.33 | 0.00 | 72 | 1005.7 |
| 20260830113855 | 59 | 316 | 0.0 | 2.0 | 0.00 | 0.33 | 0.00 | 74 | 1005.6 |
| 20260830113355 | 59 | 267 | 1.0 | 2.0 | 0.00 | 0.33 | 0.00 | 73 | 1005.6 |
| 20260830112855 | 59 | 241 | 0.0 | 1.0 | 0.00 | 0.33 | 0.00 | 74 | 1005.7 |
| 20260830112355 | 59 | 261 | 0.0 | 1.0 | 0.00 | 0.33 | 0.00 | 76 | 1005.6 |
| 20260830112256 | 59 | 261 | 0.0 | 1.0 | 0.00 | 0.33 | 0.00 | 76 | 1005.6 |
| 20260830111855 | 59 | 288 | 0.0 | 2.0 | 0.00 | 0.33 | 0.00 | 77 | 1005.6 |
| 20260830111355 | 58 | 220 | 0.0 | 1.0 | 0.00 | 0.33 | 0.00 | 77 | 1005.6 |
| 20260830111156 | 58 | 247 | 0.0 | 2.0 | 0.00 | 0.33 | 0.00 | 77 | 1005.6 |
| 20260830110855 | 58 | 289 | 1.0 | 3.0 | 0.00 | 0.33 | 0.00 | 78 | 1005.7 |
| 20260830110355 | 58 | 284 | 2.0 | 2.0 | 0.00 | 0.34 | 0.00 | 78 | 1005.7 |
| 20260830110056 | 58 | 312 | 2.0 | 2.0 | 0.00 | 0.34 | 0.00 | 77 | 1005.7 |
| 20260830105855 | 58 | 299 | 1.0 | 2.0 | 0.00 | 0.34 | 0.00 | 78 | 1005.7 |
| 20260830105355 | 58 | 267 | 0.0 | 0.0 | 0.00 | 0.34 | 0.00 | 79 | 1005.7 |
| 20260830104956 | 57 | 239 | 0.0 | 1.0 | 0.00 | 0.34 | 0.00 | 79 | 1005.7 |
| 20260830104855 | 57 | 239 | 0.0 | 1.0 | 0.00 | 0.34 | 0.00 | 78 | 1005.7 |
| 20260830104355 | 57 | 262 | 0.0 | 0.0 | 0.00 | 0.34 | 0.00 | 78 | 1005.6 |
| 20260830103855 | 57 | 262 | 0.0 | 2.0 | 0.00 | 0.34 | 0.00 | 79 | 1005.7 |
| 20260830103355 | 57 | 288 | 0.0 | 2.0 | 0.00 | 0.34 | 0.00 | 79 | 1005.7 |
| 20260830102855 | 57 | 260 | 0.0 | 3.0 | 0.00 | 0.34 | 0.00 | 80 | 1005.5 |
| 20260830102756 | 57 | 293 | 0.0 | 3.0 | 0.00 | 0.34 | 0.00 | 79 | 1005.7 |
| 20260830102355 | 57 | 149 | 0.0 | 1.0 | 0.00 | 0.34 | 0.00 | 80 | 1005.7 |
| 20260830101855 | 57 | 236 | 0.0 | 2.0 | 0.00 | 0.34 | 0.00 | 81 | 1005.7 |
| 20260830101656 | 56 | 253 | 2.0 | 2.0 | 0.00 | 0.34 | 0.00 | 80 | 1005.7 |
| 20260830101355 | 56 | 215 | 0.0 | 1.0 | 0.00 | 0.34 | 0.00 | 80 | 1005.6 |
| 20260830100855 | 56 | 320 | 0.0 | 1.0 | 0.00 | 0.34 | 0.00 | 80 | 1005.6 |
| 20260830100556 | 56 | 336 | 0.0 | 0.0 | 0.00 | 0.34 | 0.00 | 80 | 1005.7 |
| 20260830100355 | 56 | 336 | 0.0 | 0.0 | 0.00 | 0.35 | 0.00 | 79 | 1005.6 |
| 20260830095855 | 57 | 299 | 0.0 | 1.0 | 0.00 | 0.35 | 0.00 | 81 | 1005.6 |
| 20260830095456 | 57 | 244 | 0.0 | 0.0 | 0.00 | 0.35 | 0.00 | 81 | 1005.6 |
| 20260830095355 | 56 | 244 | 0.0 | 0.0 | 0.00 | 0.35 | 0.00 | 81 | 1005.6 |
| 20260830094855 | 56 | 244 | 0.0 | 1.0 | 0.00 | 0.35 | 0.00 | 81 | 1005.6 |
| 20260830094355 | 56 | 253 | 0.0 | 2.0 | 0.00 | 0.35 | 0.00 | 82 | 1005.6 |
| 20260830093855 | 56 | 195 | 0.0 | 0.0 | 0.00 | 0.35 | 0.00 | 83 | 1005.6 |
| 20260830093355 | 56 | 172 | 0.0 | 0.0 | 0.00 | 0.35 | 0.00 | 83 | 1005.4 |
| 20260830093256 | 56 | 172 | 0.0 | 0.0 | 0.00 | 0.35 | 0.00 | 83 | 1005.5 |
| 20260830092855 | 56 | 172 | 0.0 | 2.0 | 0.00 | 0.35 | 0.00 | 84 | 1005.5 |
| 20260830092355 | 55 | 274 | 0.0 | 0.0 | 0.00 | 0.35 | 0.00 | 85 | 1005.5 |
| 20260830092156 | 55 | 274 | 0.0 | 0.0 | 0.00 | 0.35 | 0.00 | 85 | 1005.5 |
| 20260830091855 | 55 | 274 | 0.0 | 0.0 | 0.00 | 0.35 | 0.00 | 85 | 1005.5 |
| 20260830091355 | 55 | 274 | 0.0 | 0.0 | 0.00 | 0.35 | 0.00 | 85 | 1005.5 |
| 20260830091056 | 55 | 274 | 0.0 | 0.0 | 0.00 | 0.35 | 0.00 | 85 | 1005.4 |
| 20260830090855 | 55 | 274 | 0.0 | 0.0 | 0.00 | 0.35 | 0.00 | 86 | 1005.4 |
| 20260830090355 | 54 | 274 | 0.0 | 1.0 | 0.00 | 0.35 | 0.00 | 87 | 1005.5 |
| 20260830085956 | 54 | 274 | 0.0 | 2.0 | 0.00 | 0.35 | 0.00 | 88 | 1005.4 |
| 20260830085855 | 54 | 307 | 0.0 | 2.0 | 0.00 | 0.35 | 0.00 | 88 | 1005.4 |
| 20260830085355 | 54 | 282 | 0.0 | 2.0 | 0.00 | 0.35 | 0.00 | 89 | 1005.4 |
| 20260830084855 | 53 | 267 | 1.0 | 2.0 | 0.00 | 0.35 | 0.00 | 89 | 1005.4 |
| 20260830084355 | 53 | 298 | 0.0 | 3.0 | 0.00 | 0.35 | 0.00 | 89 | 1005.4 |
| 20260830083855 | 53 | 320 | 2.0 | 4.0 | 0.00 | 0.35 | 0.00 | 88 | 1005.3 |
| 20260830083756 | 53 | 272 | 0.0 | 4.0 | 0.00 | 0.35 | 0.00 | 88 | 1005.4 |
| 20260830083355 | 54 | 293 | 0.0 | 0.0 | 0.00 | 0.35 | 0.00 | 88 | 1005.3 |
| 20260830082855 | 54 | 293 | 0.0 | 0.0 | 0.00 | 0.35 | 0.00 | 88 | 1005.4 |
| 20260830082656 | 54 | 293 | 0.0 | 0.0 | 0.00 | 0.35 | 0.00 | 89 | 1005.3 |
| 20260830082355 | 54 | 293 | 0.0 | 0.0 | 0.00 | 0.35 | 0.00 | 90 | 1005.3 |
| 20260830081855 | 53 | 293 | 0.0 | 0.0 | 0.00 | 0.35 | 0.00 | 90 | 1005.3 |
| 20260830081556 | 54 | 293 | 0.0 | 0.0 | 0.00 | 0.35 | 0.00 | 90 | 1005.3 |
| 20260830081355 | 53 | 293 | 0.0 | 0.0 | 0.00 | 0.35 | 0.00 | 90 | 1005.3 |
| 20260830080855 | 53 | 293 | 0.0 | 0.0 | 0.00 | 0.35 | 0.00 | 90 | 1005.2 |
| 20260830080456 | 53 | 293 | 0.0 | 0.0 | 0.00 | 0.35 | 0.00 | 91 | 1005.2 |
| 20260830080355 | 53 | 293 | 0.0 | 0.0 | 0.00 | 0.35 | 0.00 | 91 | 1005.2 |
| 20260830075855 | 53 | 293 | 0.0 | 1.0 | 0.00 | 0.35 | 0.00 | 91 | 1005.2 |
| 20260830075355 | 53 | 316 | 1.0 | 2.0 | 0.00 | 0.35 | 0.00 | 91 | 1005.2 |
| 20260830074855 | 53 | 233 | 0.0 | 0.0 | 0.00 | 0.35 | 0.00 | 93 | 1005.2 |
| 20260830074355 | 53 | 233 | 0.0 | 0.0 | 0.00 | 0.35 | 0.00 | 93 | 1005.1 |
| 20260830074256 | 53 | 233 | 0.0 | 0.0 | 0.00 | 0.35 | 0.00 | 93 | 1005.2 |
| 20260830073855 | 53 | 233 | 0.0 | 1.0 | 0.00 | 0.35 | 0.00 | 94 | 1005.2 |
| 20260830073355 | 53 | 106 | 0.0 | 0.0 | 0.00 | 0.35 | 0.00 | 95 | 1005.1 |
| 20260830073156 | 53 | 106 | 0.0 | 0.0 | 0.00 | 0.35 | 0.00 | 95 | 1005.2 |
| 20260830072855 | 53 | 106 | 0.0 | 0.0 | 0.00 | 0.35 | 0.00 | 96 | 1005.1 |
| 20260830072355 | 53 | 106 | 0.0 | 0.0 | 0.00 | 0.35 | 0.00 | 96 | 1005.1 |
| 20260830072056 | 53 | 106 | 0.0 | 0.0 | 0.00 | 0.35 | 0.00 | 96 | 1005.2 |
| 20260830071855 | 52 | 106 | 0.0 | 0.0 | 0.00 | 0.35 | 0.00 | 96 | 1005.1 |
| 20260830071355 | 52 | 106 | 0.0 | 0.0 | 0.00 | 0.35 | 0.00 | 96 | 1005.1 |
| 20260830070956 | 52 | 106 | 0.0 | 0.0 | 0.00 | 0.35 | 0.00 | 97 | 1005.1 |
| 20260830070855 | 52 | 106 | 0.0 | 0.0 | 0.00 | 0.35 | 0.00 | 97 | 1005.1 |
| 20260830070355 | 52 | 106 | 0.0 | 0.0 | 0.00 | 0.35 | 0.00 | 97 | 1005.1 |
| 20260830065855 | 52 | 106 | 0.0 | 0.0 | 0.00 | 0.35 | 0.00 | 97 | 1005.0 |
| 20260830065355 | 52 | 106 | 0.0 | 0.0 | 0.00 | 0.35 | 0.00 | 97 | 1005.0 |
| 20260830064855 | 52 | 106 | 0.0 | 0.0 | 0.00 | 0.35 | 0.00 | 97 | 1004.8 |
| 20260830064756 | 52 | 106 | 0.0 | 0.0 | 0.00 | 0.35 | 0.00 | 97 | 1005.0 |
| 20260830064355 | 51 | 106 | 0.0 | 0.0 | 0.00 | 0.35 | 0.00 | 97 | 1004.8 |
| 20260830063855 | 51 | 106 | 0.0 | 0.0 | 0.00 | 0.35 | 0.00 | 97 | 1005.0 |
| 20260830063656 | 51 | 106 | 0.0 | 0.0 | 0.00 | 0.35 | 0.00 | 97 | 1005.0 |
| 20260830063355 | 51 | 106 | 0.0 | 0.0 | 0.00 | 0.35 | 0.00 | 97 | 1005.0 |
| 20260830062855 | 51 | 106 | 0.0 | 0.0 | 0.00 | 0.35 | 0.00 | 97 | 1004.8 |
| 20260830062556 | 51 | 106 | 0.0 | 0.0 | 0.00 | 0.35 | 0.00 | 97 | 1005.0 |
| 20260830062355 | 51 | 106 | 0.0 | 0.0 | 0.00 | 0.35 | 0.00 | 97 | 1004.8 |
| 20260830061855 | 51 | 106 | 0.0 | 0.0 | 0.00 | 0.35 | 0.00 | 97 | 1004.8 |
| 20260830061456 | 51 | 106 | 0.0 | 0.0 | 0.00 | 0.35 | 0.00 | 97 | 1004.8 |
| 20260830061355 | 51 | 106 | 0.0 | 0.0 | 0.00 | 0.35 | 0.00 | 97 | 1004.8 |
| 20260830060855 | 51 | 106 | 0.0 | 0.0 | 0.00 | 0.35 | 0.00 | 97 | 1004.7 |
| 20260830060355 | 51 | 106 | 0.0 | 0.0 | 0.00 | 0.35 | 0.00 | 97 | 1004.7 |
| 20260830055855 | 50 | 106 | 0.0 | 0.0 | 0.00 | 0.35 | 0.00 | 97 | 1004.7 |
| 20260830055356 | 50 | 106 | 0.0 | 0.0 | 0.00 | 0.35 | 0.00 | 97 | 1004.7 |
| 20260830055256 | 50 | 106 | 0.0 | 0.0 | 0.00 | 0.35 | 0.00 | 97 | 1004.7 |
| 20260830054856 | 50 | 106 | 0.0 | 0.0 | 0.00 | 0.35 | 0.00 | 97 | 1004.7 |
| 20260830054355 | 50 | 106 | 0.0 | 0.0 | 0.00 | 0.35 | 0.00 | 97 | 1004.7 |
| 20260830054156 | 50 | 106 | 0.0 | 0.0 | 0.00 | 0.35 | 0.00 | 97 | 1004.7 |
| 20260830053855 | 50 | 106 | 0.0 | 0.0 | 0.00 | 0.35 | 0.00 | 97 | 1004.7 |
| 20260830053356 | 50 | 106 | 0.0 | 0.0 | 0.00 | 0.35 | 0.00 | 97 | 1004.7 |
| 20260830053057 | 50 | 106 | 0.0 | 0.0 | 0.00 | 0.35 | 0.00 | 97 | 1004.6 |
| 20260830052856 | 50 | 106 | 0.0 | 0.0 | 0.00 | 0.35 | 0.00 | 97 | 1004.6 |
| 20260830052355 | 50 | 106 | 0.0 | 0.0 | 0.00 | 0.35 | 0.00 | 97 | 1004.6 |
| 20260830051956 | 50 | 106 | 0.0 | 0.0 | 0.00 | 0.35 | 0.00 | 97 | 1004.6 |
| 20260830051856 | 50 | 106 | 0.0 | 0.0 | 0.00 | 0.35 | 0.00 | 97 | 1004.6 |
| 20260830051356 | 50 | 106 | 0.0 | 0.0 | 0.00 | 0.35 | 0.00 | 97 | 1004.6 |
| 20260830050856 | 50 | 106 | 0.0 | 0.0 | 0.00 | 0.35 | 0.00 | 97 | 1004.4 |
| 20260830050356 | 50 | 106 | 0.0 | 0.0 | 0.00 | 0.35 | 0.00 | 97 | 1004.6 |
| 20260830045856 | 50 | 106 | 0.0 | 0.0 | 0.00 | 0.35 | 0.00 | 97 | 1004.6 |
| 20260830045757 | 50 | 106 | 0.0 | 0.0 | 0.00 | 0.35 | 0.00 | 97 | 1004.6 |
| 20260830045356 | 50 | 106 | 0.0 | 0.0 | 0.00 | 0.35 | 0.00 | 97 | 1004.6 |
| 20260830044856 | 50 | 106 | 0.0 | 0.0 | 0.00 | 0.35 | 0.00 | 97 | 1004.6 |
| 20260830044657 | 50 | 106 | 0.0 | 0.0 | 0.00 | 0.35 | 0.00 | 97 | 1004.5 |
| 20260830044356 | 50 | 106 | 0.0 | 0.0 | 0.00 | 0.35 | 0.00 | 97 | 1004.6 |
| 20260830043856 | 50 | 106 | 0.0 | 0.0 | 0.00 | 0.35 | 0.00 | 97 | 1004.6 |
| 20260830043557 | 50 | 106 | 0.0 | 0.0 | 0.00 | 0.35 | 0.00 | 97 | 1004.6 |
| 20260830043356 | 50 | 106 | 0.0 | 0.0 | 0.00 | 0.35 | 0.00 | 97 | 1004.6 |
| 20260830042856 | 50 | 106 | 0.0 | 0.0 | 0.00 | 0.35 | 0.00 | 97 | 1004.6 |
| 20260830042457 | 50 | 106 | 0.0 | 0.0 | 0.00 | 0.35 | 0.00 | 97 | 1004.5 |
| 20260830042356 | 50 | 106 | 0.0 | 0.0 | 0.00 | 0.35 | 0.00 | 97 | 1004.6 |
| 20260830041856 | 50 | 106 | 0.0 | 0.0 | 0.00 | 0.35 | 0.00 | 97 | 1004.5 |
| 20260830041356 | 50 | 106 | 0.0 | 0.0 | 0.00 | 0.35 | 0.00 | 97 | 1004.5 |
| 20260830040856 | 50 | 106 | 0.0 | 0.0 | 0.00 | 0.35 | 0.00 | 97 | 1004.5 |
| 20260830040356 | 50 | 106 | 0.0 | 0.0 | 0.00 | 0.36 | 0.00 | 97 | 1004.4 |
| 20260830040257 | 50 | 106 | 0.0 | 0.0 | 0.00 | 0.36 | 0.00 | 97 | 1004.5 |
| 20260830035856 | 50 | 106 | 0.0 | 0.0 | 0.00 | 0.36 | 0.00 | 97 | 1004.4 |
| 20260830035356 | 50 | 106 | 0.0 | 0.0 | 0.00 | 0.36 | 0.00 | 97 | 1004.5 |
| 20260830035157 | 50 | 106 | 0.0 | 0.0 | 0.00 | 0.36 | 0.00 | 97 | 1004.4 |
| 20260830034856 | 50 | 106 | 0.0 | 0.0 | 0.00 | 0.36 | 0.00 | 97 | 1004.4 |
| 20260830034356 | 49 | 106 | 0.0 | 0.0 | 0.00 | 0.36 | 0.00 | 97 | 1004.5 |
| 20260830034057 | 50 | 106 | 0.0 | 0.0 | 0.00 | 0.36 | 0.00 | 97 | 1004.5 |
| 20260830033856 | 49 | 106 | 0.0 | 0.0 | 0.00 | 0.36 | 0.00 | 97 | 1004.5 |
| 20260830033356 | 49 | 106 | 0.0 | 0.0 | 0.00 | 0.36 | 0.00 | 97 | 1004.5 |
| 20260830032957 | 49 | 106 | 0.0 | 0.0 | 0.00 | 0.36 | 0.00 | 97 | 1004.4 |
| 20260830032856 | 49 | 106 | 0.0 | 0.0 | 0.00 | 0.36 | 0.00 | 97 | 1004.5 |
| 20260830032356 | 49 | 106 | 0.0 | 0.0 | 0.00 | 0.36 | 0.00 | 97 | 1004.4 |
| 20260830031856 | 49 | 106 | 0.0 | 0.0 | 0.00 | 0.36 | 0.00 | 97 | 1004.4 |
| 20260830031356 | 49 | 106 | 0.0 | 0.0 | 0.00 | 0.36 | 0.00 | 97 | 1004.4 |
| 20260830030856 | 49 | 106 | 0.0 | 0.0 | 0.00 | 0.36 | 0.00 | 97 | 1004.5 |
| 20260830030757 | 49 | 106 | 0.0 | 0.0 | 0.00 | 0.36 | 0.00 | 97 | 1004.4 |
| 20260830030356 | 50 | 106 | 0.0 | 0.0 | 0.00 | 0.39 | 0.00 | 97 | 1004.4 |
| 20260830025856 | 50 | 106 | 0.0 | 0.0 | 0.00 | 0.39 | 0.00 | 97 | 1004.4 |
| 20260830025657 | 50 | 106 | 0.0 | 0.0 | 0.00 | 0.39 | 0.00 | 97 | 1004.4 |
| 20260830025356 | 50 | 106 | 0.0 | 0.0 | 0.00 | 0.39 | 0.00 | 97 | 1004.3 |
| 20260830024856 | 50 | 106 | 0.0 | 0.0 | 0.00 | 0.39 | 0.00 | 97 | 1004.4 |
| 20260830024557 | 50 | 106 | 0.0 | 0.0 | 0.00 | 0.39 | 0.00 | 97 | 1004.4 |
| 20260830024356 | 50 | 106 | 0.0 | 0.0 | 0.00 | 0.39 | 0.00 | 97 | 1004.3 |
| 20260830023856 | 50 | 106 | 0.0 | 0.0 | 0.00 | 0.39 | 0.00 | 97 | 1004.3 |
| 20260830023457 | 50 | 106 | 0.0 | 0.0 | 0.00 | 0.39 | 0.00 | 97 | 1004.3 |
| 20260830023356 | 50 | 106 | 0.0 | 0.0 | 0.00 | 0.39 | 0.00 | 97 | 1004.3 |
| 20260830022856 | 50 | 106 | 0.0 | 0.0 | 0.00 | 0.39 | 0.00 | 97 | 1004.3 |
| 20260830022356 | 50 | 106 | 0.0 | 0.0 | 0.00 | 0.39 | 0.00 | 97 | 1004.3 |
| 20260830021856 | 50 | 106 | 0.0 | 0.0 | 0.00 | 0.39 | 0.00 | 97 | 1004.3 |
| 20260830021356 | 50 | 106 | 0.0 | 0.0 | 0.00 | 0.39 | 0.00 | 97 | 1004.3 |
| 20260830021257 | 50 | 106 | 0.0 | 0.0 | 0.00 | 0.39 | 0.00 | 97 | 1004.3 |
| 20260830020856 | 50 | 106 | 0.0 | 0.0 | 0.00 | 0.39 | 0.00 | 97 | 1004.4 |
| 20260830020356 | 50 | 106 | 0.0 | 0.0 | 0.00 | 0.50 | 0.00 | 97 | 1004.4 |
| 20260830020157 | 50 | 106 | 0.0 | 0.0 | 0.00 | 0.50 | 0.00 | 97 | 1004.4 |
| 20260830015856 | 50 | 106 | 0.0 | 0.0 | 0.00 | 0.50 | 0.00 | 97 | 1004.4 |
| 20260830015356 | 50 | 106 | 0.0 | 0.0 | 0.00 | 0.50 | 0.00 | 97 | 1004.4 |
| 20260830015057 | 50 | 106 | 0.0 | 0.0 | 0.00 | 0.50 | 0.00 | 97 | 1004.5 |
| 20260830014856 | 50 | 106 | 0.0 | 0.0 | 0.00 | 0.50 | 0.00 | 97 | 1004.4 |
| 20260830014356 | 50 | 106 | 0.0 | 0.0 | 0.00 | 0.50 | 0.00 | 97 | 1004.4 |
| 20260830013957 | 50 | 106 | 0.0 | 0.0 | 0.00 | 0.50 | 0.00 | 97 | 1004.4 |
| 20260830013856 | 50 | 106 | 0.0 | 0.0 | 0.00 | 0.50 | 0.00 | 97 | 1004.5 |
| 20260830013356 | 50 | 106 | 0.0 | 0.0 | 0.00 | 0.50 | 0.00 | 97 | 1004.4 |
| 20260830012856 | 49 | 106 | 0.0 | 0.0 | 0.00 | 0.50 | 0.00 | 97 | 1004.4 |
| 20260830012356 | 49 | 106 | 0.0 | 0.0 | 0.00 | 0.50 | 0.00 | 97 | 1004.4 |
| 20260830011856 | 49 | 106 | 0.0 | 0.0 | 0.00 | 0.50 | 0.00 | 97 | 1004.5 |
| 20260830011757 | 49 | 106 | 0.0 | 0.0 | 0.00 | 0.50 | 0.00 | 97 | 1004.4 |
| 20260830011356 | 49 | 106 | 0.0 | 0.0 | 0.00 | 0.50 | 0.00 | 97 | 1004.5 |
| 20260830010856 | 49 | 106 | 0.0 | 0.0 | 0.00 | 0.50 | 0.00 | 97 | 1004.4 |
| 20260830010657 | 49 | 106 | 0.0 | 0.0 | 0.00 | 0.50 | 0.00 | 97 | 1004.5 |
| 20260830010356 | 49 | 106 | 0.0 | 0.0 | 0.00 | 0.58 | 0.00 | 97 | 1004.4 |
| 20260830005856 | 49 | 106 | 0.0 | 0.0 | 0.00 | 0.58 | 0.00 | 97 | 1004.4 |
| 20260830005557 | 49 | 106 | 0.0 | 0.0 | 0.00 | 0.58 | 0.00 | 97 | 1004.4 |
| 20260830005356 | 49 | 106 | 0.0 | 0.0 | 0.00 | 0.58 | 0.00 | 97 | 1004.4 |
| 20260830004856 | 49 | 106 | 0.0 | 0.0 | 0.00 | 0.58 | 0.00 | 97 | 1004.4 |
| 20260830004457 | 49 | 106 | 0.0 | 0.0 | 0.00 | 0.58 | 0.00 | 97 | 1004.4 |
| 20260830004356 | 49 | 106 | 0.0 | 0.0 | 0.00 | 0.58 | 0.00 | 97 | 1004.4 |
| 20260830003856 | 49 | 106 | 0.0 | 0.0 | 0.00 | 0.58 | 0.00 | 97 | 1004.4 |
| 20260830003356 | 49 | 106 | 0.0 | 0.0 | 0.00 | 0.58 | 0.00 | 96 | 1004.4 |
| 20260830002856 | 48 | 106 | 0.0 | 0.0 | 0.00 | 0.58 | 0.00 | 96 | 1004.4 |
| 20260830002356 | 48 | 106 | 0.0 | 0.0 | 0.00 | 0.58 | 0.00 | 96 | 1004.3 |